Location: Bidart
(43.4376°N, 1.5913°W)
Time: 07:40:55
(UTC+00:00)

USA 229 DEB - Pass Details

Date: 22 April 2026
Orbit: 844 x 1364 km, 63.4° (Epoch: 10 January)

Event Time Altitude Azimuth Distance (km) Brightness Sun altitude
Rises 19:24:13 0° 295° (WNW) 3,668 9.5 -5.3°
Reaches altitude 10° 19:28:04 10° 319° (NW) 2,825 7.1 -6.0°
Maximum altitude 19:31:44 15° 353° (N) 2,575 6.2 -6.6°
Drops below altitude 10° 19:35:36 10° 26° (NNE) 3,037 6.1 -7.2°
Sets 19:40:02 0° 48° (NE) 4,118 6.5 -8.0°
